{"data":{"norad_id":66856,"intl_designator":"2025-281J","name":"STARLINK-36072","alt_names":[],"object_type":"PAYLOAD","status":"ACTIVE","operator":null,"country":"US","launch_date":"2025-12-02","launch_site_code":"AFETR","launch_vehicle":null,"mission":null,"orbit_class":"UNKNOWN","rcs_meters":null,"size_class":null,"mass_kg":null,"dimensions":null,"purposes":["comms"],"wikipedia_slug":null,"has_3d_model":false,"image_url":null,"decayed_at":null,"tle_current":{"epoch":"2026-05-24T18:01:28.895232Z","epoch_age_seconds":100515,"freshness":"FRESH","line1":"1 66856U 25281J   26144.75102888  .00007196  00000+0  27073-3 0  9999","line2":"2 66856  43.0013 274.3122 0001437 267.6162  92.4525 15.27582307 27815","mean_motion":15.27582307,"eccentricity":0.0001437,"inclination_deg":43.0013,"raan_deg":274.3122,"arg_perigee_deg":267.6162,"mean_anomaly_deg":92.4525,"bstar":0.00027073,"rev_number":2781,"period_min":94.266606349218,"perigee_km":482.05623661108,"apogee_km":484.02813950973,"semimajor_km":6861.1791880604,"source":"CELESTRAK","updated_at":"2026-05-25T13:38:21.341550Z"}}}